Sign in

Goboko Update

Goboko is set to continue

The Goboko booking system is to continue under a new operator, a member of one of our longest-subscribed flying clubs

The new and previous operators of the site are working to ensure there will be no interruption to your booking service as the transition takes place. Of course, aircraft booking will continue to be free

Thank you for your continued commitment to Goboko

Info

Aviation weather

METAR KDAB 262353Z 00000KT 10SM SCT025 SCT070 OVC130 23/22 A2991 RMK AO2 RAE35 SLP129 P0003 60003 T02330222 10278 20228 53001

TAF KDAB 262343Z 2700/2724 11005KT P6SM VCSH FEW025 BKN050 OVC120 FM271000 11007KT P6SM -RA VCSH SCT015 OVC035 FM271400 11012KT P6SM -RA SCT015 OVC030 TEMPO 2714/2718 VRB15G25KT 1SM +TSRA OVC015CB FM271800 14014G22KT 5SM -RA SCT015 OVC025

Aviation weather from ADDS. Re-check weather before flight.

-